Погода в Глазове

Хотите узнать прогноз погоды в Глазове? Тогда Вам сюда: Погода в Глазове

Поиск расширенной информации на нашем сайте:

Полезная информация:

Новости сайта



02.01.2020
Опубликован Долгосрочный прогноз погоды по городам России и ближнего зарубежья на январь 2020 года.
Карты: Прогноз на январь и февраль 2020 года, Сравнение прогнозируемой аномалии приземной температуры воздуха на январь 2020 года по разным моделям.




Погода в Глазове - сегодня

Время (UTC), дата Ветер
(°,м/с) 
Видим.   Явления Облачность Т
(°С)
Тd
(°С)
f(%) Тe
(°С)
Pmin
(гПа)
dP
(гПа)
Po
(мм)
O2
(г/м3)
Тmin Tmax R s Состояние
почвы
18 29.11.20 090 (В) 2-4{04}  4000 м    10/0 средняя 
[As op]
-6.7 -7.6 93 -8  1050.2  0.2  771  319           
21 29.11.20 100 (В) 2-3{04}  4000 м    10/0 средняя 
[As op]
-6.2 -6.6 97 -8  1050.4  0.2  771  319           
00 30.11.20 110 (В) 2-4{04}  4000 м    10/0 средняя 
[As op]
-6 -6.4 97 -7  1050.4  771  318           
03 30.11.20 120 (ЮВ) 2-3{04}  4000 м    10/0 средняя 
[As op]
-6 -6.4 97 -7  1050.2  -0.2  771  318  -9.3      10  равномерный
сухой снег
100% 
06 30.11.20 110 (В) 2-4{04}  50000 м    10/10 300 м 
[St]
-5.9 -6.7 94 -7  1050.6  0.4  771  318           
09 30.11.20 110 (В) 2-4{04}  50000 м    10/10 300 м 
[St]
-5.2 -6 94 -7  1050.3  -0.2  771  317           
12 30.11.20 140 (ЮВ) 3-4{04}  50000 м    10/10 300 м 
[St]
-4.5 -5.4 93 -7  1049.7  -0.4  771  316           
15 30.11.20 140 (ЮВ) 3-5{05}  4000 м    10/10 300 м 
[St]
-4 -5.2 91 -6  1049.3  -0.4  770  316    -4       
18 30.11.20 160 (Ю) 3-5{06}  4000 м    10/10 300 м 
[St]
-3.8 -5 91 -6  1048.7  -0.6  770  315           
21 30.11.20 150 (ЮВ) 3-5{06}  4000 м    9/9 600 м 
[Sc]
-4.4 -5.6 91 -7  1048.7  770  316           
00 01.12.20 130 (ЮВ) 2-3{05}  4000 м    ясно 
-7.6 -8.6 93 -9  1048.8  -0.2  770  320           
03 01.12.20 110 (В) 2-3{03}  4000 м    3/0 верхняя 
[Cc]
-8.9 -10 92 -11  1048.7  -0.3  769  322  -9.3      10  равномерный
сухой снег
100% 
06 01.12.20 110 (В) 2-2{03}  50000 м    3/0 верхняя 
[Ci fib]
-9.8 -11.5 87 -12  1049.1  0.4  770  323           
09 01.12.20 130 (ЮВ) 2-2{03}  20000 м    ясно 
-6.4 -10.5 73 -8  1049.3  0.5  770  319           
12 01.12.20 160 (Ю) 2-3{04}  50000 м    3/0 верхняя 
[Cc]
-6.4 -9.2 80 -8  1048.7  -0.6  770  319           
15 01.12.20 160 (Ю) 3-4{05}  4000 м    8/0 средняя 
[As trans]
-6.8 -8.4 88 -9  1048.5  -0.3  769  319    -6.3       
21 01.12.20 190 (Ю) 3-4{06}  4000 м    10/0 средняя 
[As op]
-6.4 -7.6 91 -9  1046.8  -1.1  768  318           
00 02.12.20 170 (Ю) 3-5{06}  4000 м    10/0 средняя 
[Ac As]
-6.6 -7.8 91 -9  1045.8  -1  767  318           
03 02.12.20 210 (ЮЗ) 3-5{06}  4000 м    10/0 средняя 
[Ac As]
-6.8 -8 91 -9  1045.3  -0.6  767  318  -9.4      10  равномерный
сухой снег
100% 
06 02.12.20 210 (ЮЗ) 3-6{06}  50000 м    10/10 300 м 
[St]
-7.2 -8.5 90 -10  1044.8  -0.4  767  318           
09 02.12.20 230 (ЮЗ) 4-6{07}  50000 м    10/10 600 м 
[Sc]
-7.3 -9.4 85 -11  1044.1  -0.7  766  318           
12 02.12.20 240 (ЮЗ) 3-5{06}  50000 м    10/10 600 м 
[Sc]
-7.6 -9.8 84 -10  1043.6  -0.5  766  318           
15 02.12.20 200 (Ю) 3-4{05}  4000 м  слаб. снег  10/0 средняя 
[As op]
-7.9 -9.7 87 -11  1043.4  -0.3  766  319    -6.8  0.0     
18 02.12.20 230 (ЮЗ) 2-3{04}  4000 м  {снег}  10/0 средняя 
[As op]
-7.9 -9.7 87 -9  1043.4  766  319           
21 02.12.20 240 (ЮЗ) 3-4{04}  4000 м  слаб. снег  10/0 средняя 
[As op]
-7.9 -9.7 87 -11  1043.5  0.1  766  319           
Время (UTC), дата Ветер
(°,м/с) 
Видим.   Явления Облачность Т
(°С)
Тd
(°С)
f(%) Тe
(°С)
Pmin
(гПа)
dP
(гПа)
Po
(мм)
O2
(г/м3)
Тmin Tmax R s Состояние
почвы

Для получения пояснительной информации подведите курсор к названию столбца.

ПОГОДА в Глазове - архив

Всё, что Вы хотите узнать о погоде в Глазове - удобно и подробно!

Выберите нужную дату (начиная с 1 января 2019* года) и нажмите кнопку "Найти".
Будут отображены архивные сводки погоды по пункту Глазов, начиная с указанной даты.


Отображать данные в формате CSV (для использования в таблицах Excel)


Внимание! Наш архив погоды предназначен исключительно для личного некоммерческого использования в познавательных целях. Если Вам необходимы официальные справки о состоянии погоды (для производственных, юридических, коммерческих и т.п. целей), обращайтесь в органы Росгидромета.

*Примечание: данная дата относится к архиву по метеостанциям СССР (Россия, СНГ, Балтия).
Архив по метеостанциям Зарубежной Европы и Азии (кроме Китая) хранится 10 дней, по другим регионам земного шара (Китай, Африка, Америка, Австралия, Океания) - 1 день.

Глазов - район местоположения метеостанции


Название, широта, долгота, высота метеостанции:
Глазов 58.1°ш. 52.6°д. 169 м над ур. моря [Российская Федерация]

Дополнительная информация

В oтличие oт бoльшинства пoгoдных сайтoв мы публикуем пoдрoбную метеoинфoрмацию в детальнoм прoфессиoнальнoм фoрмате.

Характеристики температуры и влажнoсти вoздуха измеряются на высoте 2 м в тени вдали oт зданий и деревьев.
Скoрoсть ветра измеряется на высoте 10 м (на урoвне рoста челoвека скoрoсть ветра ниже в 1.5-2 раза). Если метеoстанция нахoдится в гoрoде или в лесу, тo скoрoсть ветра занижена на 2-4 м/с пo сравнению с oткрытым местoм. Скoрoсть ветра над акватoриями крупных рек и oзёр, а также на вершинах хoлмoв на 2-5 м/с выше, чем в oбычных услoвиях.
Атмoсфернoе давление в разных тoчках местнoсти мoжет значительнo oтличаться oт давления на метеoстанции, в зависимoсти oт услoвий рельефа (при пoдъёме на 10 м давление пoнижается примернo на 1 мм рт.ст.).